Regional Weather Roundup
Issued by NWS

Home | Current Version | Previous Version | Graphics & Text | Print | Product List | Glossary On
Versions: 1 2 3 4 5 6 7 8 9 10 11 12 13 14 15 16 17 18 19 20 21 22 23 24 25 26 27 28 29 30 31 32 33 34 35 36 37 38 39 40 41 42 43 44 45 46 47 48 49 50
000
ASUS43 KMPX 161601
RWRMN
WEATHER ROUNDUP FOR MINNESOTA
NATIONAL WEATHER SERVICE TWIN CITIES/CHANHASSEN MN
1000 AM CST TUE JAN 16 2018


NOTE: "FAIR" INDICATES FEW OR NO CLOUDS BELOW 12,000 FEET WITH NO
SIGNIFICANT WEATHER AND/OR OBSTRUCTIONS TO VISIBILITY. N/A MEANS
CURRENT SKY AND/OR WEATHER CONDITIONS ARE NOT AVAILABLE.

MNZ060>063-068>070-161700-
   Twin Cities Metro

CITY           SKY/WX    TMP DP  RH WIND       PRES   REMARKS
TWIN CITIES    FAIR       0  -5  79 NW9       30.70R WCI -15
ST PAUL        CLOUDY     1  -5  75 NW10      30.72R WCI -15
CRYSTAL        FAIR      -1  -9  68 NW9       30.69R WCI -16
BLAINE         SUNNY      1  -6  71 NW7       30.67S WCI -11
LAKEVILLE      CLOUDY     0  -4  85 NW9       30.68S FOG     WCI -16
EDEN PRAIRIE   PTSUNNY    0  -6  76 NW7       30.69R WCI -13
SOUTH ST PAUL  CLOUDY     2  -4  75 NW6       30.69S WCI  -9
LAKE ELMO      CLOUDY     1   0  92 NW6       30.69R WCI -10
$$
MNZ001>005-007-008-013>017-022>024-027-028-161700-
   Northwest Minnesota

CITY           SKY/WX    TMP DP  RH WIND       PRES   REMARKS
BEMIDJI        LGT SNOW -13 -18  78 CALM      30.63S
HALLOCK        FAIR      -9 -17  70 S14       30.64F WCI -31
ROSEAU         FAIR      -9 -17  70 SW8       30.63S WCI -26
WARROAD        FAIR     -11 -18  70 SW5       30.61F WCI -23
CROOKSTON      FAIR     -11 -18  70 S9        30.71F WCI -29
FOSSTON        FAIR     -15 -20  76 S8        30.67S HAZE    WCI -32
DETROIT LAKES  FAIR     -11 -17  77 CALM      30.68S HAZE
MOORHEAD       FAIR     -13 -20  70 CALM      30.74F
PARK RAPIDS    FAIR     -14 -17  87 W3        30.63F
MAHNOMEN       FAIR     -15 -20  78 SW7       30.68S WCI -32
$$
MNZ006-009>011-018-025>026-161700-
   North Central Minnesota

CITY           SKY/WX    TMP DP  RH WIND       PRES   REMARKS
BAUDETTE       FAIR     -15 -19  82 SW3       30.61S
FLAG ISLAND    FAIR      -8 -15  71 S5        30.59S WCI -19
INTL FALLS     FAIR      -9 -14  78 W5        30.62S WCI -20
WASKISH        PTSUNNY  -15 -18  84 SW7       30.64S WCI -31
BIG FORK       FAIR      -6  -9  84 SW3       30.62S
LONGVILLE      FAIR      -8 -13  77 W3        30.64F
GRAND RAPIDS   CLOUDY    -4  -7  87 NW8       30.63F FOG     WCI -19
CRANE LAKE     CLOUDY    -2  -6  84 CALM      30.63F
ORR            CLOUDY    -6  -9  84 CALM      30.57F
COOK           CLOUDY    -2  -6  84 W3        30.60S
WALKER         FAIR     -11 -16  80 W5        30.63F WCI -23
$$
MNZ012-019>021-037-161700-
   Northeast Minnesota

CITY           SKY/WX    TMP DP  RH WIND       PRES   REMARKS
DULUTH         FAIR      -1  -5  82 NW14      30.56S WCI -20
ELY            CLOUDY    -2  -6  84 W5        30.58R WCI -12
HIBBING        MIX PCPN  -5  -8  87 NW9       30.60S FOG     WCI -22
EVELETH        PTSUNNY   -3  -8  77 N5        30.60S WCI -14
DULUTH HARBOR  FAIR       3  -2  78 W6        30.66S WCI  -8
TWO HARBORS    FAIR       9  -2  61 W6        30.56S WCI  -1
SILVER BAY     FAIR       5  -2  72 NW6       30.55F WCI  -6
GRAND MARAIS     N/A     13   2  61 NW8       30.58S WCI   2
G MARAIS ARPRT FAIR       1  -6  71 CALM      30.47F
$$
MNZ029>031-032-039>041-046>048-054>057-064-161700-
   West Central Minnesota

CITY           SKY/WX    TMP DP  RH WIND       PRES   REMARKS
FERGUS FALLS   FAIR     -13 -18  77 NW6       30.78S WCI -27
WHEATON        CLOUDY    -9 -17  70 NW8       30.77S WCI -26
MORRIS         CLOUDY    -9 -15  77 NW12      30.71F WCI -29
ALEXANDRIA     FAIR      -8 -12  83 NW8       30.66S WCI -24
ELBOW LAKE     FAIR     -12 -16  81 NW8       30.72S WCI -29
WADENA         FAIR     -13 -18  77 W5        30.66S WCI -25
GLENWOOD       PTSUNNY   -8 -13  77 NW10      30.68R WCI -26
APPLETON       CLOUDY    -8 -15  71 NW8       30.75F WCI -23
BENSON         CLOUDY    -9 -17  70 N12G17    30.73S WCI -29
ORTONVILLE     CLOUDY    -8 -17  65 NW9       30.73F WCI -25
MADISON        CLOUDY    -6 -15  65 NW12      30.75S WCI -24
WILLMAR        PTSUNNY   -8 -13  77 NW10      30.73S WCI -26
$$
MNZ033>034-036-042>043-049>051-058-059-161700-
   Central Minnesota

CITY           SKY/WX    TMP DP  RH WIND       PRES   REMARKS
ST CLOUD       FAIR      -5  -9  83 NW8       30.68S WCI -20
SAUK CENTRE      N/A     -8 -14  76 NW9       30.68R WCI -25
PAYNESVILLE    FAIR      -8 -12  80 W6        30.70R WCI -21
PINE RIVER     FAIR      -8 -11  84 NW5       30.66F WCI -19
BRAINERD       FAIR      -5 -10  79 NW7       30.66R WCI -19
STAPLES        FAIR     -11 -17  77 NW7       30.66S WCI -26
LONG PRAIRIE   FAIR      -8 -13  77 W8        30.67R WCI -23
LITTLE FALLS   FAIR      -6 -15  65 NW6       30.68S WCI -18
LITCHFIELD     FAIR      -6 -11  77 NW7       30.69F WCI -20
BUFFALO        CLOUDY    -3  -8  79 W6        30.71S WCI -16
MAPLE LAKE     FAIR      -2  -7  81 MISG      30.70S
HUTCHINSON     FAIR      -6 -12  75 W9        30.71S WCI -22
$$
MNZ037-044-045-052-053-161700-
   East Central Minnesota

CITY           SKY/WX    TMP DP  RH WIND       PRES   REMARKS
PRINCETON      FAIR       0  -6  78 W6        30.67S WCI -12
MORA           FAIR       1  -6  71 NW6       30.67S WCI -10
CAMBRIDGE        N/A      0  -8  71 NW7       30.68S WCI -13
RUSH CITY      FAIR       0  -5  78 NW6       30.67S WCI -12
MOOSE LAKE     FAIR       1  -4  78 N6        30.62S WCI -10
HINCKLEY       FAIR       1  -4  78 NW5       30.65S WCI  -8
CLOQUET        FAIR       0  -6  78 NW9       30.58F WCI -16
MCGREGOR       FAIR       0  -6  78 NW7       30.63S WCI -13
$$
MNZ071>073-080-081-089-090-097-098-161700-
   Southwest Minnesota

CITY           SKY/WX    TMP DP  RH WIND       PRES   REMARKS
MONTEVIDEO     CLOUDY    -6 -11  77 N9        30.75R WCI -22
GRANITE FALLS  CLOUDY    -6 -12  75 NW10      30.76S WCI -23
CANBY          CLOUDY    -5 -11  74 NW9       30.74F WCI -21
MARSHALL       CLOUDY    -7 -13  75 NW14      30.73S WCI -28
REDWOOD FALLS  CLOUDY    -6 -11  79 NW9       30.73F WCI -23
OLIVIA         CLOUDY    -6 -11  77 NW9       30.72S WCI -22
PIPESTONE      CLOUDY    -4  -8  84 N8        30.66S WCI -19
WINDOM         CLOUDY    -6 -18  54 NW13      30.69R HAZE    WCI -25
WORTHINGTON    CLOUDY    -5 -10  79 NW15      30.68  WCI -26
JACKSON        SUNNY     -6 -11  77 NW15      30.68R WCI -27
SLAYTON        CLOUDY    -7 -10  83 NW12      30.68R WCI -26
$$
MNZ065>067-074>077-082>085-091>093-161700-
   South Central Minnesota

CITY           SKY/WX    TMP DP  RH WIND       PRES   REMARKS
MANKATO        LGT SNOW  -4  -9  79 NW13      30.71R WCI -23
NEW ULM        PTSUNNY   -8 -13  77 NW10      30.72S WCI -26
ST JAMES       LGT SNOW  -6  -9  84 NW14      30.73R WCI -26
FAIRMONT       LGT SNOW  -5 -11  75 NW17      30.71R WCI -27
FARIBAULT      CLOUDY     0  -6  78 W10       30.68R FOG     WCI -17
OWATONNA       CLOUDY    -2  -8  78 NW12      30.67R FOG     WCI -20
WASECA         CLOUDY    -2  -8  78 NW12      30.70R HAZE    WCI -20
ALBERT LEA     CLOUDY    -2  -9  71 NW7       30.65R HAZE    WCI -16
$$
MNZ078>079-086>088-094>096-161700-
   Southeast Minnesota

CITY           SKY/WX    TMP DP  RH WIND       PRES   REMARKS
ROCHESTER      CLOUDY     3   1  91 NW16      30.61R BLWGSNOWWCI -16
RED WING       LGT SNOW   7  -2  66 NW7       30.67R WCI  -5
STANTON        CLOUDY     3  -2  79 NW10      30.67S WCI -12
DODGE CENTER   LGT SNOW   1  -2  85 NW14      30.62R WCI -17
WINONA         CLOUDY    10   5  79 NW6         N/A  WCI   1
AUSTIN         CLOUDY    -2  -6  84 NW15      30.63R FOG     WCI -22
PRESTON        LGT SNOW   4  -1  83 N14       30.60R WCI -14
$$
ABBREVIATIONS USED IN REMARKS
   TC - TEMPERATURES IN CELSIUS
  WCI - WIND CHILL INDEX
   HX - HEAT INDEX
  VSB - VISIBILITY
$$



USA.gov is the U.S. government's official web portal to all federal, state and local government web resources and services.